Date String (YYYY-MM-DD hh:mm:ss) UTC,Instrument flags,Ambient pressure (hPa),Sample flow (lpm),Bypass flow (lpm),Sample temperature (°C),Ambient temperature (°C),ASC tube jacket temperature (°C),LED temperature (°C),Box temperature (°C),Sample RH (%),Span deviation,Mass concentration (μg/m³),Mass concentration (μg/m³),Mass concentration (μg/m³)
DateTimeUTC,F1_M11,P_M11,Q1_M11,Q2_M11,T1_M11,T2_M11,T3_M11,T4_M11,T5_M11,U1_M11,ZSPAN_M11,X2_M11,X0_M11,X1_M11
2023-05-25 14:00:00,,0829.7,5.00,0.00,28.6,27.0,00.0,36.8,30.2,27.2,0002.8,0008.62,0016.01,0007.81
2023-05-25 14:01:00,,0829.7,5.01,0.00,28.6,27.0,00.0,36.9,30.2,27.7,0002.9,0008.67,0016.52,0007.87
2023-05-25 14:02:00,,0829.8,5.00,0.00,28.6,27.0,00.0,36.9,30.2,27.6,0003.0,0008.70,0016.56,0007.91
2023-05-25 14:03:00,,0829.7,5.00,0.00,28.6,27.0,00.0,36.9,30.2,27.4,0003.0,0008.78,0017.00,0007.94
2023-05-25 14:04:00,,0829.8,4.99,0.00,28.6,27.0,00.0,36.9,30.2,28.7,0003.1,0008.83,0017.21,0007.99
2023-05-25 14:05:00,,0829.8,5.00,0.00,28.6,27.1,00.0,36.9,30.2,28.8,0003.1,0008.89,0017.38,0008.06
2023-05-25 14:06:00,,0829.7,5.00,0.00,28.6,27.1,00.0,36.9,30.3,29.0,0003.0,0008.94,0017.06,0008.13
2023-05-25 14:07:00,,0829.8,5.00,0.00,28.6,27.1,00.0,36.9,30.3,28.8,0003.0,0009.06,0017.38,0008.24
2023-05-25 14:08:00,,0829.8,5.01,0.00,28.6,27.1,00.0,36.9,30.3,28.5,0003.2,0009.19,0017.76,0008.37
2023-05-25 14:09:00,,0829.8,5.01,0.00,28.6,27.1,00.0,36.9,30.3,28.9,0003.1,0009.34,0017.47,0008.48
2023-05-25 14:10:00,,0829.8,5.00,0.00,28.7,27.1,00.0,36.9,30.3,28.8,0003.1,0009.46,0017.01,0008.59
2023-05-25 14:11:00,,0829.8,4.99,0.00,28.7,27.1,00.0,36.9,30.3,28.6,0003.1,0009.53,0016.99,0008.70
2023-05-25 14:12:00,,0829.8,5.01,0.00,28.7,27.1,00.0,36.9,30.3,29.0,0002.9,0009.63,0016.71,0008.79
2023-05-25 14:13:00,,0829.8,5.00,0.00,28.7,27.1,00.0,36.9,30.3,29.1,0002.8,0009.76,0016.95,0008.90
2023-05-25 14:14:00,,0829.8,5.00,0.00,28.7,27.1,00.0,37.0,30.3,29.4,0002.8,0009.85,0016.88,0009.02
2023-05-25 14:15:00,,0829.8,4.99,0.00,28.7,27.2,00.0,37.0,30.4,29.3,0002.6,0009.99,0016.81,0009.15
2023-05-25 14:16:00,,0829.8,4.99,0.00,28.7,27.2,00.0,37.0,30.3,29.2,0002.6,0010.11,0016.93,0009.25
2023-05-25 14:17:00,,0829.8,5.00,0.00,28.7,27.2,00.0,37.0,30.4,29.5,0002.6,0010.15,0016.75,0009.31
2023-05-25 14:18:00,,0829.8,5.01,0.00,28.7,27.2,00.0,37.0,30.4,29.8,0002.5,0010.20,0016.69,0009.36
2023-05-25 14:19:00,,0829.8,5.01,0.00,28.7,27.2,00.0,37.0,30.4,29.6,0002.5,0010.27,0016.57,0009.42
2023-05-25 14:20:00,,0829.8,5.01,0.00,28.7,27.2,00.0,37.0,30.4,29.5,0002.5,0010.38,0016.63,0009.50
2023-05-25 14:21:00,,0829.8,4.99,0.00,28.8,27.2,00.0,37.0,30.4,29.4,0002.5,0010.45,0016.68,0009.57
2023-05-25 14:22:00,,0829.8,4.99,0.00,28.8,27.2,00.0,37.0,30.4,29.8,0002.5,0010.52,0017.12,0009.64
2023-05-25 14:23:00,,0829.8,5.00,0.00,28.8,27.2,00.0,37.0,30.4,30.0,0002.6,0010.57,0017.09,0009.72
2023-05-25 14:24:00,,0829.8,5.00,0.00,28.8,27.2,00.0,37.0,30.4,29.0,0002.7,0010.64,0017.12,0009.76
2023-05-25 14:25:00,,0829.8,5.01,0.00,28.8,27.2,00.0,37.0,30.4,29.1,0002.7,0010.67,0017.16,0009.79
2023-05-25 14:26:00,,0829.8,4.99,0.00,28.8,27.2,00.0,37.1,30.4,28.7,0002.8,0010.68,0017.18,0009.81
2023-05-25 14:27:00,,0829.7,4.99,0.00,28.8,27.2,00.0,37.1,30.4,28.6,0002.7,0010.63,0017.09,0009.80
2023-05-25 14:28:00,,0829.7,5.01,0.00,28.8,27.2,00.0,37.1,30.4,28.7,0002.6,0010.66,0017.14,0009.80
2023-05-25 14:29:00,,0829.7,5.01,0.00,28.8,27.2,00.0,37.1,30.4,29.4,0002.8,0010.65,0017.15,0009.79
2023-05-25 14:30:00,,0829.7,5.00,0.00,28.8,27.2,00.0,37.1,30.4,29.6,0002.7,0010.57,0016.89,0009.72
2023-05-25 14:31:00,,0829.7,4.99,0.00,28.8,27.3,00.0,37.1,30.4,28.6,0002.6,0010.46,0016.72,0009.64
2023-05-25 14:32:00,,0829.7,5.01,0.00,28.8,27.3,00.0,37.1,30.4,28.6,0002.6,0010.38,0016.56,0009.55
2023-05-25 14:33:00,,0829.7,5.01,0.00,28.8,27.3,00.0,37.1,30.5,29.5,0002.5,0010.38,0016.27,0009.50
2023-05-25 14:34:00,,0829.8,5.00,0.00,28.8,27.3,00.0,37.1,30.5,29.7,0002.5,0010.34,0016.18,0009.45
2023-05-25 14:35:00,,0829.8,4.99,0.00,28.8,27.3,00.0,37.1,30.5,28.8,0002.6,0010.31,0016.16,0009.44
2023-05-25 14:36:00,,0829.8,5.00,0.00,28.9,27.3,00.0,37.1,30.5,28.5,0002.7,0010.28,0016.22,0009.43
2023-05-25 14:37:00,,0829.8,5.00,0.00,28.9,27.3,00.0,37.1,30.5,28.8,0002.5,0010.23,0016.11,0009.40
2023-05-25 14:38:00,,0829.8,5.00,0.00,28.9,27.3,00.0,37.2,30.5,29.3,0002.6,0010.27,0016.62,0009.43
2023-05-25 14:39:00,,0829.8,5.00,0.00,28.9,27.3,00.0,37.2,30.5,28.8,0002.8,0010.28,0017.59,0009.46
2023-05-25 14:40:00,,0829.8,5.00,0.00,28.9,27.3,00.0,37.2,30.5,29.2,0002.6,0010.26,0017.51,0009.46
2023-05-25 14:41:00,,0829.8,5.00,0.00,28.9,27.3,00.0,37.2,30.5,29.3,0002.6,0010.27,0017.53,0009.47
2023-05-25 14:42:00,,0829.8,4.99,0.00,28.9,27.3,00.0,37.2,30.5,28.5,0002.6,0010.28,0017.52,0009.50
2023-05-25 14:43:00,,0829.7,5.00,0.00,28.9,27.3,00.0,37.2,30.5,28.3,0002.6,0010.30,0018.05,0009.54
2023-05-25 14:44:00,,0829.8,5.00,0.00,28.9,27.3,00.0,37.2,30.5,28.6,0002.6,0010.32,0018.45,0009.57
2023-05-25 14:45:00,,0829.7,5.00,0.00,28.9,27.3,00.0,37.2,30.5,29.2,0002.5,0010.32,0018.47,0009.61
2023-05-25 14:46:00,,0829.7,5.01,0.00,28.9,27.4,00.0,37.2,30.5,28.5,0002.4,0010.38,0018.62,0009.62
2023-05-25 14:47:00,,0829.7,5.00,0.00,28.9,27.4,00.0,37.2,30.5,28.6,0002.3,0010.38,0018.40,0009.64
2023-05-25 14:48:00,,0829.7,5.00,0.00,28.9,27.4,00.0,37.2,30.6,28.7,0002.3,0010.43,0018.61,0009.65
2023-05-25 14:49:00,,0829.7,5.00,0.00,28.9,27.4,00.0,37.2,30.6,28.7,0002.4,0010.43,0018.74,0009.65
2023-05-25 14:50:00,,0829.7,5.00,0.00,28.9,27.4,00.0,37.2,30.6,28.2,0002.4,0010.41,0018.33,0009.63
2023-05-25 14:51:00,,0829.7,5.00,0.00,28.9,27.4,00.0,37.3,30.6,28.3,0002.4,0010.41,0018.40,0009.61
2023-05-25 14:52:00,,0829.7,5.00,0.00,29.0,27.4,00.0,37.3,30.6,28.1,0002.5,0010.42,0018.37,0009.61
2023-05-25 14:53:00,,0829.7,5.01,0.00,29.0,27.4,00.0,37.3,30.6,28.0,0002.6,0010.37,0018.25,0009.56
2023-05-25 14:54:00,,0829.7,5.00,0.00,29.0,27.4,00.0,37.3,30.6,27.8,0002.6,0010.31,0017.69,0009.50
2023-05-25 14:55:00,,0829.7,5.00,0.00,29.0,27.5,00.0,37.3,30.6,28.0,0002.6,0010.29,0017.51,0009.47
2023-05-25 14:56:00,,0829.7,4.99,0.00,29.0,27.5,00.0,37.3,30.6,28.4,0002.7,0010.19,0017.37,0009.38
2023-05-25 14:57:00,,0829.7,5.00,0.00,29.0,27.5,00.0,37.3,30.6,27.6,0002.7,0010.07,0017.16,0009.29
2023-05-25 14:58:00,,0829.7,4.99,0.00,29.0,27.5,00.0,37.3,30.6,27.8,0002.8,0009.99,0017.38,0009.21
2023-05-25 14:59:00,,0829.7,5.00,0.00,29.0,27.5,00.0,37.3,30.6,27.8,0002.9,0009.90,0017.95,0009.14
